Weather History for Amritsar, India

Change the Weather History Date:

Monday, March 18, 2013

  Actual Average Record
Temperature  
Mean Temperature 68 °F -  
Max Temperature 82 °F 77 °F 91 °F (2004)
Min Temperature 55 °F 55 °F 51 °F (1999)
Cooling Degree Days 4    
Growing Degree Days 18 (Base 50)    
Moisture  
Dew Point 59 °F    
Average Humidity 67    
Maximum Humidity 100    
Minimum Humidity 36    
Precipitation  
Precipitation 0.00 in - - ()
Sea Level Pressure  
Sea Level Pressure 29.86 in    
Wind  
Wind Speed 4 mph ()    
Max Wind Speed 14 mph    
Max Gust Speed -    
Visibility 2.8 miles    
Events      
Averages and records for this station are not official NWS values.
T = Trace of Precipitation, MM = Missing Value Source: Averaged Metar Reports

Daily Weather History Graph

Daily Weather History Graph

Search for Another Location

Airport:

Trip Planner

Search our weather history database for the weather conditions in past years. The results will help you decide how hot, cold, wet, or windy it might be!

Date:

Astronomy

Mar. 18, 2013 Rise Set
Actual Time 6:37 AM IST 6:40 PM IST
Civil Twilight 6:13 AM IST 7:05 PM IST
Nautical Twilight 5:44 AM IST 7:33 PM IST
Astronomical Twilight 5:16 AM IST 8:02 PM IST
Moon 10:35 AM IST (3/18) No Moon Set
Length of Visible Light 12h 52m
Length of Day
12h 03m
Waxing Crescent, 36% of the Moon is Illuminated
Mar 18
Waxing Crescent
Mar 19
First Quarter
Mar 27
Full
Apr 3
Last Quarter
Apr 10
New

Hourly Weather History & Observations

Time (IST) Temp. Heat Index Dew Point Humidity Pressure Visibility Wind Dir Wind Speed Gust Speed Precip Events Conditions
12:30 AM 60.8 °F - 57.2 °F 88% 29.98 in 1.9 mi Calm Calm - N/A   Scattered Clouds
4:30 AM 57.2 °F - 57.2 °F 100% 29.89 in 1.9 mi Calm Calm - N/A   Scattered Clouds
5:30 AM 56 °F - 55 °F 95% 29.90 in 1 mi Calm Calm - -   Mist
5:30 AM 55.4 °F - 55.4 °F 100% 29.89 in 1.2 mi Calm Calm - N/A   Scattered Clouds
7:00 AM 55.4 °F - 55.4 °F 100% 29.89 in 1.2 mi Calm Calm - N/A   Scattered Clouds
7:30 AM 57.2 °F - 55.4 °F 94% 29.92 in 1.2 mi Variable 3.5 mph - N/A   Scattered Clouds
8:30 AM 63 °F - 57 °F 74% 29.91 in 2 mi NW 6.9 mph - -   Mist
11:00 AM 73.4 °F - 60.8 °F 65% 29.92 in 3.7 mi WNW 9.2 mph - N/A   Unknown
1:00 PM 78.8 °F - 59.0 °F 51% 29.89 in 3.7 mi West 13.8 mph - N/A   Unknown
1:30 PM 80.6 °F 81.1 °F 59.0 °F 48% 29.86 in 3.7 mi West 13.8 mph - N/A   Unknown
2:00 PM 80.6 °F 81.5 °F 60.8 °F 51% 29.86 in 3.7 mi WNW 12.7 mph - N/A   Unknown
2:30 PM 82 °F - 59 °F 36% 29.82 in 2 mi West 11.5 mph - -  
2:30 PM 82.4 °F 82.5 °F 59.0 °F 45% 29.86 in 3.7 mi West 11.5 mph - N/A   Unknown
3:30 PM 80.6 °F 81.1 °F 59.0 °F 48% 29.83 in 3.7 mi West 12.7 mph - N/A   Unknown
4:00 PM 80.6 °F 81.1 °F 59.0 °F 48% 29.83 in 3.7 mi WNW 13.8 mph - N/A   Unknown
4:30 PM 78.8 °F - 59.0 °F 51% 29.83 in 3.7 mi West 11.5 mph - N/A   Unknown
5:30 PM 77 °F - 62 °F 49% 29.78 in 2 mi WNW 6.9 mph - -   Clear
5:30 PM 77.0 °F - 60.8 °F 57% 29.80 in 3.7 mi WNW 6.9 mph - N/A   Scattered Clouds
6:00 PM 75.2 °F - 60.8 °F 61% 29.80 in 3.7 mi WNW 4.6 mph - N/A   Scattered Clouds
8:00 PM 71.6 °F - 62.6 °F 73% 29.83 in 3.7 mi Calm Calm - N/A   Scattered Clouds
8:30 PM 71 °F - 59 °F 57% 29.80 in 2 mi Calm Calm - -   Clear
9:00 PM 69.8 °F - 59.0 °F 68% 29.83 in 3.7 mi Calm Calm - N/A   Scattered Clouds
9:30 PM 68.0 °F - 59.0 °F 73% 29.83 in 3.7 mi Calm Calm - N/A   Scattered Clouds
10:00 PM 66.2 °F - 59.0 °F 78% 29.83 in 3.7 mi Calm Calm - N/A   Scattered Clouds
10:30 PM 66.2 °F - 57.2 °F 73% 29.83 in 3.7 mi Calm Calm - N/A   Scattered Clouds
11:30 PM 64 °F - 56 °F 70% 29.83 in 2 mi Calm Calm - -   Haze